Regional Weather Roundup
Issued by NWS

Home | Current Version | Previous Version | Text Only | Print | Product List | Glossary On
Versions: 1 2 3 4 5 6 7 8 9 10 11 12 13 14 15 16 17 18 19 20 21 22 23 24 25 26 27 28 29 30 31 32 33 34 35 36 37 38 39 40 41 42 43 44 45 46 47 48 49 50
000
ASUS45 KCYS 061110
RWRWY

WYOMING REGIONAL WEATHER ROUNDUP
NATIONAL WEATHER SERVICE CHEYENNE WY
400 AM MST FRI MAR 06 2015

NOTE:  "FAIR" INDICATES FEW OR NO CLOUDS BELOW 12,000 FEET
WITH NO SIGNIFICANT WEATHER AND/OR OBSTRUCTIONS TO VISIBILITY.

WYZ001-061200-
YELLOWSTONE NATIONAL PARK

CITY           SKY/WX    TMP DP  RH WIND       PRES   REMARKS
LK YELLOWSTONE   N/A      3  -1  83 CALM      30.36R
W YELLOWSTONE  NOT AVBL

$$
WYZ002>013-054>058-071-098>099-061200-
NORTHERN WYOMING

CITY           SKY/WX    TMP DP  RH WIND       PRES   REMARKS
JACKSON        FAIR       7   5  92 N16       30.37R WCI -11
CODY           FAIR      39  10  30 W15G25    30.18R WCI  31
GREYBULL       FAIR      22  15  75 SE6       30.23S WCI  14
WORLAND        FAIR      23  15  71 CALM      30.22S
SHERIDAN       FAIR      27  14  58 CALM      30.14S
BUFFALO        FAIR      33  13  43 NW6       30.14F WCI  28
GILLETTE       FAIR      33  16  49 SW14      30.13F WCI  23
HULETT         FAIR      32  19  59 SW10      30.12S WCI  24
NEWCASTLE      PTSUNNY   27  16  63 N3        30.15F

$$
WYZ014>020-022>026-101>103-061200-
CENTRAL WYOMING

CITY           SKY/WX    TMP DP  RH WIND       PRES   REMARKS
BIG PINEY      FAIR      14   8  77 NW7       30.34F WCI   4
PINEDALE       FAIR       5   1  85 W7        30.34F WCI  -7
DUBOIS         FAIR      18   9  68 NW17      30.27S WCI   2
LANDER         FAIR      17   9  70 E5        30.23S WCI  10
RIVERTON       FAIR      11   5  77 NE7       30.23F WCI   0
CASPER         FAIR      29  17  61 SW20      30.21S WCI  16
DOUGLAS        FAIR      18  13  80 N3        30.20F

$$
WYZ021-027>030-104>119-061200-
SOUTHERN WYOMING

CITY           SKY/WX    TMP DP  RH WIND       PRES   REMARKS
EVANSTON       FAIR      21  12  68 SW10      30.38F WCI  10
FORT BRIDGER   FAIR      26  12  55 W16       30.38F WCI  14
ROCK SPRINGS   FAIR      25  11  55 SW9       30.34S WCI  15
DIXON          FAIR      12   8  84 CALM      30.41R
RAWLINS        FAIR      26  13  57 W25G32    30.27R WCI  11
SARATOGA       FAIR      25  14  63 SW12      30.32S WCI  14
LARAMIE        FAIR      23  10  57 W13       30.24S WCI  11
CHEYENNE       FAIR      33  13  43 W12       30.22R WCI  24
TORRINGTON     FAIR      35  20  54 W13       30.19F WCI  26
PINE BLUFFS    FAIR      32  18  55 W8        30.22S WCI  25

$$


USA.gov is the U.S. government's official web portal to all federal, state and local government web resources and services.